SL-16 DEB, 22394

Orbit data source: Space-Track

SL-16 DEB, 22394 is space debris in LEO originally from a launch on Fri, 25 Dec 1992 UTC launched from the Tyuratam Missile And Space Complex (TTMTR). Debris objects in space refer to the collection of defunct objects orbiting the Earth. Examples of debris include non-operational satellites, rocket bodies, and fragments generated from explosions, collisions, or faulty payload assembly.

Loading next visibility...
Identifier
22394, 1992-093CK
Orbit
LEO
Country
Flag of CISCIS
Related business
Manufacturer
Unknown
Mission
Spacecraft
Bus & Motor
Unknown
Mass
Unknown
Launch date (UTC)
1992-12-25 (33 years ago)
Launch vehicle
Unknown
Launch site
Tyuratam Missile And Space Complex (TTMTR)
Object type
Payload
Rocket body
Debris
Shape & HBR
Unknown shape, 0.4 m
Radar Cross Section
Medium (>0.1 m² and <1 m²)

Expand to show TLE details & history
Last TLE update: 19 hours ago

TLE from 19 hours ago
0 SL-16 DEB
1 22394U 92093CK  25307.65167936  .00000511  00000-0  30569-3 0  9996
2 22394  71.2772  26.7812 0070993  37.2617 323.3400 14.10353157679353
Epoch: 2025-11-03T15:38Z
TLE epoch observation values (Epoch: 2025-11-03T15:38:25.096Z)
Latitude
0.00002°
Longitude
109.02665°
Altitude
819.491 km
Speed
7.465 km/s
True Right ascension
01h 47m 07s
True Declination
0° 00' 00"
Sunlit
Object was in full shadow at epoch
Visualization orbit readout
Latitude
Unknown
Longitude
Unknown
Altitude
Unknown
Speed
Unknown
Apparent Right ascension
Unknown
Apparent Declination
Unknown
Sunlit
N/A
Visualization observer readout
Local Sidereal Time
06:19:52
Azimuth
Unknown
Elevation
Unknown
Doppler factor
Unknown
Orbital elements
Apogee altitude
907.424 km
Perigee altitude
804.708 km
Semi-major axis
7,234.203 km
Eccentricity
0.0071
Inclination
71.2772°
RAAN
26.7812°
Arg. of periapsis
37.2617°
True anomaly
322.8508°
Mean anomaly
323.34°
Eccentric anomaly
323.09575°
Mean motion
3.52742 °/min
Orbital period
102.06 mins
BSTAR
0.00030569
Loading maneuver chart data...
Computing Atmospheric mass density...

Documentation

Showing up to 5 results
|